• In Netherlands
  • List of Countries
  • For 7 days
  • Water Temperature
  • Satellite Maps
  • Weather Map
  • Weather Widgets
  • user-avatar
    Login

    Hourly Weather San Luis

    Today, 21 February, Tuesday

    Time Temperature Precipitation Wind Pressure Humidity
    00:00 +28°C° 0 mm 3 mps 698 mmHg 46%
    01:00 +28°C° 0 mm 4 mps 698 mmHg 51%
    02:00 +27°C° 0 mm 5 mps 698 mmHg 55%
    03:00 +27°C° 0.1 mm 5 mps 699 mmHg 59%
    04:00 +27°C° 0.1 mm 5 mps 699 mmHg 63%
    05:00 +26°C° 0.1 mm 5 mps 699 mmHg 67%
    06:00 +27°C° 0 mm 5 mps 699 mmHg 64%
    07:00 +28°C° 0 mm 5 mps 699 mmHg 62%
    08:00 +29°C° 0 mm 5 mps 700 mmHg 59%
    09:00 +32°C° 0 mm 5 mps 700 mmHg 51%
    10:00 +34°C° 0 mm 4 mps 700 mmHg 43%
    11:00 +36°C° 0 mm 3 mps 701 mmHg 34%
    12:00 +36°C° 0 mm 2 mps 700 mmHg 32%
    13:00 +37°C° 0 mm 2 mps 700 mmHg 30%
    14:00 +38°C° 0 mm 2 mps 700 mmHg 27%
    15:00 +37°C° 0 mm 2 mps 699 mmHg 27%
    16:00 +37°C° 0 mm 3 mps 699 mmHg 27%
    17:00 +37°C° 0 mm 3 mps 698 mmHg 27%
    18:00 +35°C° 0.1 mm 3 mps 698 mmHg 31%
    19:00 +34°C° 0.1 mm 3 mps 698 mmHg 35%
    20:00 +31°C° 0.1 mm 3 mps 698 mmHg 39%
    21:00 +30°C° 0.1 mm 3 mps 698 mmHg 41%
    22:00 +29°C° 0.1 mm 3 mps 698 mmHg 43%
    23:00 +29°C° 0.1 mm 3 mps 698 mmHg 44%

    Tomorrow, 22 February, Wednesday

    Time Temperature Precipitation Wind Pressure Humidity
    00:00 +28°C° 0.1 mm 3 mps 698 mmHg 45%
    01:00 +28°C° 0.1 mm 3 mps 698 mmHg 46%
    02:00 +28°C° 0.1 mm 3 mps 698 mmHg 47%
    03:00 +27°C° 0.2 mm 3 mps 698 mmHg 52%
    04:00 +27°C° 0.2 mm 4 mps 698 mmHg 57%
    05:00 +26°C° 0.2 mm 4 mps 698 mmHg 61%
    06:00 +28°C° 0 mm 3 mps 698 mmHg 58%
    07:00 +29°C° 0 mm 3 mps 699 mmHg 54%
    08:00 +30°C° 0 mm 3 mps 699 mmHg 51%
    09:00 +33°C° 0 mm 3 mps 699 mmHg 44%
    10:00 +35°C° 0 mm 2 mps 700 mmHg 36%
    11:00 +37°C° 0 mm 2 mps 700 mmHg 29%
    12:00 +37°C° 0 mm 2 mps 699 mmHg 27%
    13:00 +38°C° 0 mm 2 mps 699 mmHg 25%
    14:00 +39°C° 0 mm 2 mps 698 mmHg 23%
    15:00 +38°C° 0 mm 2 mps 697 mmHg 23%
    16:00 +38°C° 0 mm 2 mps 697 mmHg 23%
    17:00 +38°C° 0 mm 2 mps 696 mmHg 23%
    18:00 +36°C° 0 mm 3 mps 696 mmHg 26%
    19:00 +35°C° 0 mm 3 mps 696 mmHg 29%
    20:00 +33°C° 0 mm 3 mps 696 mmHg 33%
    21:00 +31°C° 0.1 mm 3 mps 696 mmHg 37%
    22:00 +30°C° 0.1 mm 3 mps 696 mmHg 40%
    23:00 +29°C° 0.1 mm 4 mps 697 mmHg 44%

    Day after tomorrow, 23 February, Thursday

    Time Temperature Precipitation Wind Pressure Humidity
    00:00 +29°C° 0 mm 4 mps 696 mmHg 48%
    01:00 +29°C° 0 mm 4 mps 696 mmHg 51%
    02:00 +28°C° 0 mm 4 mps 696 mmHg 54%
    03:00 +28°C° 0.1 mm 4 mps 696 mmHg 55%
    04:00 +28°C° 0.1 mm 4 mps 696 mmHg 55%
    05:00 +27°C° 0.1 mm 4 mps 696 mmHg 56%
    06:00 +29°C° 0.1 mm 4 mps 696 mmHg 52%
    07:00 +30°C° 0.1 mm 4 mps 697 mmHg 49%
    08:00 +32°C° 0.1 mm 4 mps 698 mmHg 45%
    09:00 +34°C° 0 mm 4 mps 698 mmHg 39%
    10:00 +36°C° 0 mm 4 mps 698 mmHg 33%
    11:00 +38°C° 0 mm 3 mps 698 mmHg 27%
    12:00 +38°C° 0 mm 3 mps 698 mmHg 25%
    13:00 +39°C° 0 mm 3 mps 697 mmHg 24%
    14:00 +40°C° 0 mm 3 mps 697 mmHg 22%
    15:00 +39°C° 0 mm 3 mps 696 mmHg 22%
    16:00 +39°C° 0 mm 3 mps 696 mmHg 22%
    17:00 +39°C° 0 mm 3 mps 695 mmHg 22%
    18:00 +37°C° 0 mm 3 mps 695 mmHg 27%
    19:00 +35°C° 0 mm 3 mps 695 mmHg 31%
    20:00 +33°C° 0 mm 3 mps 695 mmHg 35%
    21:00 +31°C° 0 mm 3 mps 695 mmHg 37%
    22:00 +31°C° 0 mm 3 mps 695 mmHg 40%
    23:00 +30°C° 0 mm 3 mps 695 mmHg 42%

    24 February, Friday

    Time Temperature Precipitation Wind Pressure Humidity
    00:00 +30°C° 0 mm 4 mps 695 mmHg 43%
    01:00 +29°C° 0 mm 4 mps 695 mmHg 44%
    02:00 +29°C° 0 mm 4 mps 695 mmHg 45%
    03:00 +29°C° 0 mm 4 mps 695 mmHg 45%
    04:00 +29°C° 0 mm 4 mps 695 mmHg 44%
    05:00 +28°C° 0 mm 4 mps 695 mmHg 44%
    06:00 +30°C° 0 mm 5 mps 695 mmHg 42%
    07:00 +32°C° 0 mm 5 mps 696 mmHg 40%
    08:00 +33°C° 0 mm 6 mps 697 mmHg 37%
    09:00 +35°C° 0 mm 5 mps 697 mmHg 33%
    10:00 +37°C° 0 mm 5 mps 697 mmHg 29%
    11:00 +40°C° 0 mm 5 mps 698 mmHg 25%
    12:00 +40°C° 0.2 mm 4 mps 697 mmHg 24%
    13:00 +40°C° 0.2 mm 4 mps 697 mmHg 24%
    14:00 +41°C° 0.2 mm 4 mps 696 mmHg 23%
    15:00 +40°C° 0.2 mm 4 mps 696 mmHg 24%
    16:00 +40°C° 0.2 mm 4 mps 695 mmHg 25%
    17:00 +40°C° 0.2 mm 4 mps 695 mmHg 26%
    18:00 +37°C° 0 mm 4 mps 695 mmHg 29%
    19:00 +35°C° 0 mm 4 mps 695 mmHg 33%
    20:00 +33°C° 0 mm 4 mps 695 mmHg 37%
    21:00 +31°C° 0 mm 3 mps 695 mmHg 39%
    22:00 +31°C° 0 mm 3 mps 695 mmHg 40%
    23:00 +30°C° 0 mm 3 mps 695 mmHg 42%

    25 February, Saturday

    Time Temperature Precipitation Wind Pressure Humidity
    00:00 +30°C° 0.3 mm 4 mps 695 mmHg 44%
    01:00 +29°C° 0.3 mm 4 mps 695 mmHg 46%
    02:00 +28°C° 0.3 mm 5 mps 695 mmHg 48%
    03:00 +28°C° 0.3 mm 5 mps 695 mmHg 50%
    04:00 +28°C° 0.3 mm 5 mps 695 mmHg 52%
    05:00 +27°C° 0.3 mm 5 mps 695 mmHg 53%
    06:00 +28°C° 0.2 mm 6 mps 696 mmHg 51%
    07:00 +29°C° 0.2 mm 6 mps 696 mmHg 49%
    08:00 +30°C° 0.2 mm 6 mps 697 mmHg 47%
    09:00 +33°C° 0.3 mm 6 mps 697 mmHg 41%
    10:00 +35°C° 0.3 mm 6 mps 697 mmHg 36%
    11:00 +38°C° 0.3 mm 6 mps 697 mmHg 30%
    12:00 +38°C° 0.1 mm 6 mps 697 mmHg 29%
    13:00 +39°C° 0.1 mm 5 mps 696 mmHg 28%
    14:00 +39°C° 0.1 mm 5 mps 695 mmHg 27%
    15:00 +37°C° 0.2 mm 5 mps 695 mmHg 29%
    16:00 +37°C° 0.2 mm 5 mps 694 mmHg 30%
    17:00 +36°C° 0.2 mm 4 mps 694 mmHg 32%
    18:00 +35°C° 0.2 mm 4 mps 694 mmHg 36%
    19:00 +33°C° 0.2 mm 4 mps 694 mmHg 41%
    20:00 +30°C° 0.2 mm 3 mps 694 mmHg 45%
    21:00 +29°C° 0.7 mm 4 mps 694 mmHg 52%
    22:00 +28°C° 0.7 mm 4 mps 694 mmHg 59%
    23:00 +27°C° 0.7 mm 4 mps 695 mmHg 65%

    26 February, Sunday

    Time Temperature Precipitation Wind Pressure Humidity
    00:00 +27°C° 0.4 mm 4 mps 695 mmHg 65%
    01:00 +27°C° 0.4 mm 4 mps 695 mmHg 64%
    02:00 +27°C° 0.4 mm 4 mps 694 mmHg 63%
    03:00 +26°C° 0.2 mm 4 mps 695 mmHg 64%
    04:00 +26°C° 0.2 mm 5 mps 695 mmHg 64%
    05:00 +26°C° 0.2 mm 5 mps 695 mmHg 64%
    06:00 +26°C° 0.5 mm 5 mps 695 mmHg 65%
    07:00 +26°C° 0.5 mm 5 mps 696 mmHg 66%
    08:00 +26°C° 0.5 mm 4 mps 696 mmHg 68%
    09:00 +27°C° 2 mm 4 mps 696 mmHg 68%
    10:00 +27°C° 2 mm 4 mps 696 mmHg 68%
    11:00 +27°C° 2 mm 4 mps 696 mmHg 68%
    12:00 +27°C° 4.6 mm 4 mps 696 mmHg 68%
    13:00 +27°C° 4.6 mm 4 mps 696 mmHg 69%
    14:00 +27°C° 4.6 mm 5 mps 696 mmHg 70%
    15:00 +27°C° 3 mm 5 mps 696 mmHg 69%
    16:00 +28°C° 3 mm 4 mps 696 mmHg 68%
    17:00 +28°C° 3 mm 4 mps 696 mmHg 67%
    18:00 +26°C° 1.9 mm 4 mps 696 mmHg 72%
    19:00 +25°C° 1.9 mm 4 mps 696 mmHg 77%
    20:00 +23°C° 1.9 mm 4 mps 696 mmHg 83%
    21:00 +22°C° 0.7 mm 4 mps 696 mmHg 84%
    22:00 +22°C° 0.7 mm 5 mps 697 mmHg 86%
    23:00 +21°C° 0.7 mm 5 mps 697 mmHg 88%
    Show more